When you browse on this site, cookies collect data to enhance your experience and personalize the content and advertising you see.
Visit our Privacy Policy to learn more. By continuing to use the site, you agree to this use of cookies and data.
  • In Hungary
  • List of Countries
  • For 7 days
  • Water Temperature
  • Satellite Maps
  • Weather Map
  • News
  • Weather Widgets
  • user-avatar
    Login

    Hourly Weather Cergowa

    Today, 15 December, Saturday

    Time Temperature Precipitation Wind Pressure Humidity
    00:00 -4°C° 0 mm 3 mps 735 mmHg 88%
    01:00 -5°C° 0 mm 3 mps 735 mmHg 85%
    02:00 -5°C° 0 mm 3 mps 735 mmHg 84%
    03:00 -5°C° 0 mm 3 mps 735 mmHg 83%
    04:00 -5°C° 0 mm 3 mps 735 mmHg 82%
    05:00 -5°C° 0 mm 4 mps 735 mmHg 82%
    06:00 -5°C° 0 mm 4 mps 735 mmHg 81%
    07:00 -5°C° 0 mm 4 mps 735 mmHg 82%
    08:00 -5°C° 0 mm 4 mps 735 mmHg 80%
    09:00 -5°C° 0 mm 5 mps 735 mmHg 77%
    10:00 -5°C° 0 mm 5 mps 735 mmHg 74%
    11:00 -5°C° 0 mm 5 mps 735 mmHg 73%
    12:00 -4°C° 0 mm 5 mps 734 mmHg 72%
    13:00 -4°C° 0 mm 5 mps 734 mmHg 69%
    14:00 -5°C° 0.1 mm 5 mps 734 mmHg 74%
    15:00 -5°C° 0.1 mm 5 mps 734 mmHg 78%
    16:00 -5°C° 0.1 mm 5 mps 734 mmHg 82%
    17:00 -5°C° 0.5 mm 5 mps 733 mmHg 84%
    18:00 -6°C° 0.5 mm 5 mps 733 mmHg 87%
    19:00 -5°C° 0.5 mm 4 mps 733 mmHg 89%
    20:00 -5°C° 0.4 mm 4 mps 733 mmHg 89%
    21:00 -5°C° 0.4 mm 4 mps 732 mmHg 89%
    22:00 -5°C° 0.4 mm 3 mps 732 mmHg 89%
    23:00 -5°C° 0.2 mm 3 mps 732 mmHg 90%

    Tomorrow, 16 December, Sunday

    Time Temperature Precipitation Wind Pressure Humidity
    00:00 -5°C° 0.2 mm 3 mps 732 mmHg 90%
    01:00 -4°C° 0.2 mm 2 mps 731 mmHg 90%
    02:00 -4°C° 0.2 mm 2 mps 731 mmHg 91%
    03:00 -4°C° 0.2 mm 2 mps 731 mmHg 91%
    04:00 -3°C° 0.2 mm 2 mps 730 mmHg 92%
    05:00 -1°C° 0.2 mm 1 mps 730 mmHg 92%
    06:00 -1°C° 0.2 mm 1 mps 730 mmHg 93%
    07:00 -1°C° 0.2 mm 1 mps 730 mmHg 93%
    08:00 -1°C° 0.2 mm 1 mps 730 mmHg 92%
    09:00 0°C° 0.2 mm 1 mps 731 mmHg 91%
    10:00 0°C° 0.2 mm 1 mps 731 mmHg 90%
    11:00 0°C° 0.1 mm 1 mps 731 mmHg 89%
    12:00 0°C° 0.1 mm 0 mps 731 mmHg 89%
    13:00 0°C° 0.1 mm 0 mps 731 mmHg 89%
    14:00 0°C° 0.1 mm 0 mps 731 mmHg 91%
    15:00 0°C° 0.1 mm 1 mps 731 mmHg 93%
    16:00 0°C° 0.1 mm 1 mps 731 mmHg 95%
    17:00 0°C° 0 mm 1 mps 731 mmHg 96%
    18:00 -1°C° 0 mm 1 mps 732 mmHg 96%
    19:00 -1°C° 0 mm 1 mps 732 mmHg 96%
    20:00 -1°C° 0 mm 1 mps 732 mmHg 95%
    21:00 -1°C° 0 mm 1 mps 732 mmHg 95%
    22:00 -1°C° 0 mm 1 mps 732 mmHg 95%
    23:00 -3°C° 0 mm 2 mps 732 mmHg 94%

    Day after tomorrow, 17 December, Monday

    Time Temperature Precipitation Wind Pressure Humidity
    00:00 -3°C° 0 mm 2 mps 733 mmHg 94%
    01:00 -3°C° 0 mm 2 mps 733 mmHg 93%
    02:00 -4°C° 0 mm 2 mps 732 mmHg 93%
    03:00 -4°C° 0 mm 2 mps 732 mmHg 94%
    04:00 -4°C° 0 mm 2 mps 732 mmHg 94%
    05:00 -4°C° 0 mm 2 mps 732 mmHg 94%
    06:00 -3°C° 0 mm 1 mps 732 mmHg 93%
    07:00 -3°C° 0 mm 1 mps 733 mmHg 93%
    08:00 -2°C° 0 mm 1 mps 733 mmHg 90%
    09:00 -1°C° 0 mm 1 mps 733 mmHg 88%
    10:00 -1°C° 0 mm 1 mps 733 mmHg 85%
    11:00 0°C° 0 mm 1 mps 733 mmHg 83%
    12:00 -1°C° 0 mm 0 mps 733 mmHg 81%
    13:00 0°C° 0 mm 0 mps 733 mmHg 79%
    14:00 0°C° 0 mm 1 mps 734 mmHg 82%
    15:00 -1°C° 0 mm 1 mps 734 mmHg 84%
    16:00 -2°C° 0 mm 1 mps 734 mmHg 87%
    17:00 -2°C° 0 mm 1 mps 735 mmHg 87%
    18:00 -2°C° 0 mm 1 mps 735 mmHg 86%
    19:00 -2°C° 0 mm 1 mps 736 mmHg 85%
    20:00 -2°C° 0 mm 1 mps 736 mmHg 86%
    21:00 -2°C° 0 mm 1 mps 736 mmHg 86%
    22:00 -2°C° 0 mm 1 mps 736 mmHg 87%
    23:00 -2°C° 0 mm 1 mps 737 mmHg 87%

    18 December, Tuesday

    Time Temperature Precipitation Wind Pressure Humidity
    00:00 -2°C° 0 mm 1 mps 737 mmHg 88%
    01:00 -2°C° 0 mm 1 mps 737 mmHg 89%
    02:00 -2°C° 0 mm 1 mps 737 mmHg 90%
    03:00 -2°C° 0 mm 1 mps 737 mmHg 91%
    04:00 -2°C° 0 mm 1 mps 737 mmHg 93%
    05:00 -2°C° 0 mm 1 mps 738 mmHg 93%
    06:00 -2°C° 0 mm 1 mps 738 mmHg 93%
    07:00 -1°C° 0 mm 1 mps 739 mmHg 94%
    08:00 -1°C° 0 mm 1 mps 739 mmHg 93%
    09:00 0°C° 0 mm 1 mps 739 mmHg 91%
    10:00 0°C° 0 mm 1 mps 739 mmHg 90%
    11:00 +1°C° 0 mm 1 mps 739 mmHg 90%
    12:00 +1°C° 0 mm 1 mps 739 mmHg 90%
    13:00 +1°C° 0 mm 1 mps 738 mmHg 89%
    14:00 +1°C° 0 mm 1 mps 739 mmHg 90%
    15:00 0°C° 0 mm 1 mps 739 mmHg 92%
    16:00 0°C° 0 mm 1 mps 739 mmHg 93%
    17:00 -1°C° 0 mm 1 mps 739 mmHg 93%
    18:00 -1°C° 0 mm 1 mps 739 mmHg 94%
    19:00 -1°C° 0 mm 1 mps 739 mmHg 94%
    20:00 -1°C° 0 mm 1 mps 739 mmHg 94%
    21:00 -3°C° 0 mm 2 mps 739 mmHg 94%
    22:00 -4°C° 0 mm 2 mps 739 mmHg 94%
    23:00 -2°C° 0 mm 1 mps 739 mmHg 94%

    19 December, Wednesday

    Time Temperature Precipitation Wind Pressure Humidity
    00:00 -2°C° 0 mm 1 mps 739 mmHg 95%
    01:00 -2°C° 0 mm 1 mps 739 mmHg 95%
    02:00 -2°C° 0 mm 1 mps 738 mmHg 95%
    03:00 -2°C° 0 mm 1 mps 738 mmHg 96%
    04:00 -2°C° 0 mm 1 mps 738 mmHg 96%
    05:00 -2°C° 0 mm 1 mps 738 mmHg 96%
    06:00 -3°C° 0 mm 1 mps 738 mmHg 95%
    07:00 -3°C° 0 mm 1 mps 738 mmHg 95%
    08:00 -2°C° 0 mm 1 mps 739 mmHg 93%
    09:00 -4°C° 0 mm 2 mps 739 mmHg 90%
    10:00 -3°C° 0 mm 2 mps 739 mmHg 88%
    11:00 -2°C° 0 mm 2 mps 739 mmHg 86%
    12:00 -2°C° 0 mm 2 mps 738 mmHg 84%
    13:00 -1°C° 0 mm 2 mps 738 mmHg 83%
    14:00 -2°C° 0 mm 2 mps 738 mmHg 85%
    15:00 -3°C° 0 mm 2 mps 738 mmHg 88%
    16:00 -4°C° 0 mm 2 mps 738 mmHg 91%
    17:00 -4°C° 0 mm 2 mps 738 mmHg 91%
    18:00 -4°C° 0 mm 2 mps 738 mmHg 91%
    19:00 -4°C° 0 mm 2 mps 738 mmHg 92%
    20:00 -4°C° 0 mm 2 mps 738 mmHg 91%
    21:00 -4°C° 0 mm 2 mps 738 mmHg 91%
    22:00 -4°C° 0 mm 2 mps 738 mmHg 91%
    23:00 -4°C° 0 mm 2 mps 738 mmHg 91%

    20 December, Thursday

    Time Temperature Precipitation Wind Pressure Humidity
    00:00 -5°C° 0 mm 2 mps 738 mmHg 91%
    01:00 -5°C° 0 mm 2 mps 738 mmHg 91%
    02:00 -6°C° 0 mm 3 mps 737 mmHg 91%
    03:00 -5°C° 0 mm 3 mps 737 mmHg 91%
    04:00 -5°C° 0 mm 3 mps 737 mmHg 91%
    05:00 -5°C° 0 mm 3 mps 737 mmHg 92%
    06:00 -5°C° 0 mm 3 mps 737 mmHg 92%
    07:00 -5°C° 0 mm 3 mps 737 mmHg 92%
    08:00 -4°C° 0 mm 3 mps 737 mmHg 90%
    09:00 -4°C° 0 mm 3 mps 737 mmHg 88%
    10:00 -2°C° 0 mm 3 mps 737 mmHg 86%
    11:00 -2°C° 0 mm 3 mps 737 mmHg 84%
    12:00 -1°C° 0 mm 3 mps 737 mmHg 83%
    13:00 -1°C° 0 mm 3 mps 736 mmHg 82%
    14:00 -1°C° 0 mm 3 mps 736 mmHg 84%
    15:00 -2°C° 0 mm 3 mps 736 mmHg 86%
    16:00 -4°C° 0 mm 3 mps 736 mmHg 89%
    17:00 -4°C° 0 mm 3 mps 736 mmHg 88%
    18:00 -3°C° 0 mm 2 mps 736 mmHg 87%
    19:00 -3°C° 0 mm 2 mps 736 mmHg 86%
    20:00 -3°C° 0 mm 2 mps 736 mmHg 85%
    21:00 -3°C° 0 mm 2 mps 736 mmHg 84%
    22:00 -3°C° 0 mm 2 mps 737 mmHg 83%
    23:00 -3°C° 0 mm 2 mps 737 mmHg 83%
    Show more